INMARSAT 6-F1

Last updated on Sun Jul 06 2025 00:02:47 GMT+0000 (Coordinated Universal Time)

1 50319U 21128A 25186.43866631 -.00000156 00000+0 00000+0 0 9992 2 50319 0.0254 30.3019 0000296 90.4768 44.5903 1.00270046 12781
UTC large
Height (km)
Speed (km/s)
/
Latitude / Longitude
Inclination (degrees)
Orbital Period (minutes)
Azimuth
Elevation
Range (km)
Doppler Factor

Next 0 passes for location: London (51.5072 / 0.1276)

Sorry there are no passes over London.